Hourly Data Report for October 01, 2014

All times are specified in Local Standard Time (LST). Add 1 hour to adjust for Daylight Saving Time where and when it is observed.

RANKIN INLET A
NUNAVUT

62°48'38.000" N
92°06'53.000" W
32.30 m
2303405
71083
YRT

Download Data

Hourly Data (October 2014)
Hourly Data Report for October 1, 2014
Temp Definition
°C
Dew Point Temp Definition
°C
Rel Hum Definition
%
Wind Dir Definition
10's deg

Wind Spd Definition
km/h
Visibility Definition
km
Stn Press Definition
kPa
Hmdx Definition


Wind Chill Definition


Weather Definition


TIME
00:00 Legend Double Dagger -1.1 -3.3 85 11 32 12.9 101.46   -8 Snow
01:00 Legend Double Dagger -0.9 -3.0 86 11 38 12.9 101.38   -8 Snow
02:00 Legend Double Dagger -1.1 -3.3 85 11 32 24.1 101.35   -8 Snow
03:00 Legend Double Dagger -0.9 -2.3 90 9 30 4.8 101.34   -8 Snow
04:00 Legend Double Dagger -1.0 -2.1 92 11 34 4.8 101.27   -8 Snow
05:00 Legend Double Dagger -0.7 -2.1 90 11 36 4.8 101.23   -8 Snow
06:00 Legend Double Dagger -0.3 -1.4 92 10 30 4.8 101.18   -7 Snow
07:00 Legend Double Dagger 0.1 -1.7 88 11 45 3.2 101.11     Snow,Blowing Snow
08:00 Legend Double Dagger 0.3 -1.3 89 10 36 3.2 101.05     Snow,Blowing Snow
09:00 Legend Double Dagger 0.5 -1.4 87 10 35 6.4 101.03     Snow,Blowing Snow
10:00 Legend Double Dagger 0.4 -0.9 91 9 41 1.6 100.99     Snow
11:00 Legend Double Dagger 0.7 -0.5 92 9 39 12.9 100.95     Snow
12:00 Legend Double Dagger 0.9 -0.1 93 9 39 4.8 100.87     Snow
13:00 Legend Double Dagger 1.5 0.2 91 10 33 9.7 100.83     Snow
14:00 Legend Double Dagger 1.4 0.2 92 9 36 4.8 100.78     Snow
15:00 Legend Double Dagger 0.9 -0.1 93 9 42 4.8 100.75     Snow,Fog
16:00 Legend Double Dagger 0.9 0.0 94 9 44 4.8 100.72     Snow,Fog
17:00 Legend Double Dagger 0.7 -0.2 94 9 45 3.2 100.67     Rain,Snow,Fog
18:00 Legend Double Dagger 0.6 -0.3 94 9 39 2.4 100.63     Rain,Snow,Fog
19:00 Legend Double Dagger 0.6 -0.1 95 9 45 2.4 100.56     Snow,Fog
20:00 Legend Double Dagger 0.4 -0.3 95 8 36 2.4 100.50     Snow,Fog
21:00 Legend Double Dagger 0.4 -0.2 96 8 40 2.8 100.46     Snow,Fog
22:00 Legend Double Dagger 0.4 -0.3 95 8 41 2.4 100.41     Snow,Fog
23:00 Legend Double Dagger 0.3 -0.3 96 8 40 2.4 100.38     Snow

Notes on Data Quality.

Legend

  • E = Estimated
  • M = Missing
  • NA = Not Available
  • ‡ = Partner data that is not subject to review by the National Climate Archives
Date modified: